ATLAS 5 CENTAUR DEB, 45474

Orbit data source: Space-Track

ATLAS 5 CENTAUR DEB, 45474 is space debris in HEO originally from a launch on Wed, 17 Oct 2018 UTC launched from the Air Force Eastern Test Range (AFETR). Debris objects in space refer to the collection of defunct objects orbiting the Earth. Examples of debris include non-operational satellites, rocket bodies, and fragments generated from explosions, collisions, or faulty payload assembly.

Loading next visibility...
Identifier
45474, 2018-079BW
Orbit
HEO
Country
Flag of USUS
Related business
Flag of USUnited Launch Alliance/Lockheed Martin (US)
Manufacturer
ULA Decatur
Mission
Spacecraft
Bus & Motor
Unknown
Mass
Unknown
Launch date (UTC)
2018-10-17 (7 years ago)
Launch vehicle
Unknown
Launch site
Air Force Eastern Test Range (AFETR)
Object type
Payload
Rocket body
Debris
Shape & HBR
Unknown shape, 1.1 m
Radar Cross Section
RCS unknown

Expand to show TLE details & history
Last TLE update: 6 days ago

TLE from 6 days ago
0 ATLAS 5 CENTAUR DEB
1 45474U 18079BW  25335.94433645 -.00000068  00000-0  00000-0 0  9990
2 45474  12.7742  77.1827 4507473 225.2576  87.7325  1.74206708 39559
Epoch: 2025-12-01T22:39Z
TLE epoch observation values (Epoch: 2025-12-01T22:39:50.669Z)
Latitude
Longitude
26.08574°
Altitude
27,686.107 km
Speed
3.121 km/s
True Right ascension
05h 08m 20s
True Declination
0° 00' 00"
Sunlit
Object was in daylight at epoch
Visualization orbit readout
Latitude
Unknown
Longitude
Unknown
Altitude
Unknown
Speed
Unknown
Apparent Right ascension
Unknown
Apparent Declination
Unknown
Sunlit
N/A
Visualization observer readout
Local Sidereal Time
10:45:49
Azimuth
Unknown
Elevation
Unknown
Doppler factor
Unknown
Orbital elements
Apogee altitude
35,951.697 km
Perigee altitude
9,647.932 km
Semi-major axis
29,177.952 km
Eccentricity
0.45075
Inclination
12.7742°
RAAN
77.1827°
Arg. of periapsis
225.2576°
True anomaly
134.70951°
Mean anomaly
87.7325°
Eccentric anomaly
111.72417°
Mean motion
0.43547 °/min
Orbital period
826.69 mins
BSTAR
0
Loading maneuver chart data...
Computing Atmospheric mass density...

Documentation

Showing up to 5 results
|